This is the latest recevied weather packets stored in our database for station/object NR6G-12. If no packets are shown the sender has not sent any weather packets the latest 10 day(s).
| Time | Temp. | Humidity | Pressure | Rain* | Wind** | Luminosity | Snow |
|---|---|---|---|---|---|---|---|
| 1788286933 | 18.89° C | 44% | 1017.7 hPa | 0 mm | - | - | - |
| 1788286573 | 17.78° C | 48% | 1017.8 hPa | 0 mm | - | - | - |
| 1788286213 | 16.67° C | 57% | 1017.7 hPa | 0 mm | - | - | - |
| 1788285853 | 16.11° C | 58% | 1017.5 hPa | 0 mm | - | - | - |
| 1788285493 | 15.56° C | 58% | 1017.6 hPa | 0 mm | - | - | - |
| 1788285133 | 15.56° C | 57% | 1017.7 hPa | 0 mm | - | - | - |
| 1788284773 | 15.56° C | 56% | 1017.6 hPa | 0 mm | - | - | - |
| 1788284413 | 16.11° C | 55% | 1017.5 hPa | 0 mm | - | - | - |
| 1788284053 | 16.67° C | 51% | 1017.4 hPa | 0 mm | - | - | - |
| 1788283693 | 17.22° C | 49% | 1017.4 hPa | 0 mm | - | - | - |
| 1788283333 | 17.78° C | 46% | 1017.3 hPa | 0 mm | - | - | - |
| 1788282973 | 17.78° C | 46% | 1017.2 hPa | 0 mm | - | - | - |
| 1788282613 | 17.78° C | 46% | 1017.1 hPa | 0 mm | - | - | - |
| 1788282253 | 17.78° C | 44% | 1017.1 hPa | 0 mm | - | - | - |
| 1788281533 | 17.22° C | 47% | 1017 hPa | 0 mm | - | - | - |
| 1788281173 | 17.22° C | 44% | 1017 hPa | 0 mm | - | - | - |
| 1788280813 | 17.78° C | 44% | 1017 hPa | 0 mm | - | - | - |
| 1788280453 | 17.78° C | 44% | 1016.9 hPa | 0 mm | - | - | - |
| 1788280093 | 17.78° C | 46% | 1017 hPa | 0 mm | - | - | - |
| 1788279751 | 18.33° C | 47% | 1016.9 hPa | 0 mm | - | - | - |
| 1788279373 | 18.33° C | 47% | 1016.8 hPa | 0 mm | - | - | - |
| 1788279013 | 17.78° C | 47% | 1016.9 hPa | 0 mm | - | - | - |
| 1788278653 | 17.78° C | 47% | 1016.9 hPa | 0 mm | - | - | - |
| 1788278293 | 17.78° C | 47% | 1016.7 hPa | 0 mm | - | - | - |
| 1788277933 | 17.78° C | 45% | 1016.8 hPa | 0 mm | - | - | - |
* Rain latest hour (hover to see other rain measurements)
** Current wind speed in m/s (hover to see current wind gust speed)